#datetime,building,power
2023-07-20T00:00:00,mfh,24.80
2023-07-20T00:01:00,mfh,24.88
2023-07-20T00:02:00,mfh,24.88
2023-07-20T00:03:00,mfh,25.57
2023-07-20T00:04:00,mfh,25.40
2023-07-20T00:05:00,mfh,24.73
2023-07-20T00:06:00,mfh,24.84
2023-07-20T00:07:00,mfh,24.74
2023-07-20T00:08:00,mfh,24.65
2023-07-20T00:09:00,mfh,24.64
2023-07-20T00:10:00,mfh,24.63
2023-07-20T00:11:00,mfh,24.60
2023-07-20T00:12:00,mfh,24.70
2023-07-20T00:13:00,mfh,25.58
2023-07-20T00:14:00,mfh,24.91
2023-07-20T00:15:00,mfh,24.94
2023-07-20T00:16:00,mfh,24.77
2023-07-20T00:17:00,mfh,25.34
2023-07-20T00:18:00,mfh,24.56
2023-07-20T00:19:00,mfh,24.61
2023-07-20T00:20:00,mfh,24.66
2023-07-20T00:21:00,mfh,24.61
2023-07-20T00:22:00,mfh,24.91
2023-07-20T00:23:00,mfh,25.00
2023-07-20T00:24:00,mfh,25.16
2023-07-20T00:25:00,mfh,25.28
2023-07-20T00:26:00,mfh,31.42
2023-07-20T00:27:00,mfh,32.02
2023-07-20T00:28:00,mfh,31.16
2023-07-20T00:29:00,mfh,31.04
2023-07-20T00:30:00,mfh,30.97
2023-07-20T00:31:00,mfh,30.47
2023-07-20T00:32:00,mfh,30.47
2023-07-20T00:33:00,mfh,29.72
2023-07-20T00:34:00,mfh,30.23
2023-07-20T00:35:00,mfh,30.23
2023-07-20T00:36:00,mfh,30.17
2023-07-20T00:37:00,mfh,30.93
2023-07-20T00:38:00,mfh,25.58
2023-07-20T00:39:00,mfh,25.61
2023-07-20T00:40:00,mfh,24.85
2023-07-20T00:41:00,mfh,24.70
2023-07-20T00:42:00,mfh,23.96
2023-07-20T00:43:00,mfh,24.59
2023-07-20T00:44:00,mfh,24.60
2023-07-20T00:45:00,mfh,24.64
2023-07-20T00:46:00,mfh,25.33
2023-07-20T00:47:00,mfh,25.51
2023-07-20T00:48:00,mfh,26.34
2023-07-20T00:49:00,mfh,26.35
2023-07-20T00:50:00,mfh,26.27
2023-07-20T00:51:00,mfh,27.14
2023-07-20T00:52:00,mfh,26.44
2023-07-20T00:53:00,mfh,26.38
2023-07-20T00:54:00,mfh,24.79
2023-07-20T00:55:00,mfh,24.72
2023-07-20T00:56:00,mfh,25.01
2023-07-20T00:57:00,mfh,25.19
2023-07-20T00:58:00,mfh,25.16
2023-07-20T00:59:00,mfh,25.32
2023-07-20T01:00:00,mfh,25.96
2023-07-20T01:01:00,mfh,25.54
2023-07-20T01:02:00,mfh,25.46
2023-07-20T01:03:00,mfh,24.88
2023-07-20T01:04:00,mfh,24.93
2023-07-20T01:05:00,mfh,24.23
2023-07-20T01:06:00,mfh,24.72
2023-07-20T01:07:00,mfh,24.69
2023-07-20T01:08:00,mfh,25.30
2023-07-20T01:09:00,mfh,25.32
2023-07-20T01:10:00,mfh,24.61
2023-07-20T01:11:00,mfh,24.58
2023-07-20T01:12:00,mfh,24.58
2023-07-20T01:13:00,mfh,24.05
2023-07-20T01:14:00,mfh,24.01
2023-07-20T01:15:00,mfh,24.06
2023-07-20T01:16:00,mfh,24.78
2023-07-20T01:17:00,mfh,25.48
2023-07-20T01:18:00,mfh,25.31
2023-07-20T01:19:00,mfh,25.33
2023-07-20T01:20:00,mfh,25.37
2023-07-20T01:21:00,mfh,24.74
2023-07-20T01:22:00,mfh,24.03
2023-07-20T01:23:00,mfh,24.04
2023-07-20T01:24:00,mfh,23.89
2023-07-20T01:25:00,mfh,24.49
2023-07-20T01:26:00,mfh,25.13
2023-07-20T01:27:00,mfh,25.28
2023-07-20T01:28:00,mfh,25.26
2023-07-20T01:29:00,mfh,25.32
2023-07-20T01:30:00,mfh,24.02
2023-07-20T01:31:00,mfh,23.98
2023-07-20T01:32:00,mfh,23.85
2023-07-20T01:33:00,mfh,23.87
2023-07-20T01:34:00,mfh,24.49
2023-07-20T01:35:00,mfh,25.16
2023-07-20T01:36:00,mfh,25.19
2023-07-20T01:37:00,mfh,25.25
2023-07-20T01:38:00,mfh,25.56
2023-07-20T01:39:00,mfh,25.09
2023-07-20T01:40:00,mfh,24.04
2023-07-20T01:41:00,mfh,23.99
2023-07-20T01:42:00,mfh,23.97
2023-07-20T01:43:00,mfh,24.53
2023-07-20T01:44:00,mfh,25.30
2023-07-20T01:45:00,mfh,25.44
2023-07-20T01:46:00,mfh,25.71
2023-07-20T01:47:00,mfh,25.88
2023-07-20T01:48:00,mfh,24.16
2023-07-20T01:49:00,mfh,24.09
2023-07-20T01:50:00,mfh,24.06
2023-07-20T01:51:00,mfh,24.68
2023-07-20T01:52:00,mfh,25.94
2023-07-20T01:53:00,mfh,26.09
2023-07-20T01:54:00,mfh,26.14
2023-07-20T01:55:00,mfh,26.34
2023-07-20T01:56:00,mfh,26.37
2023-07-20T01:57:00,mfh,26.07
2023-07-20T01:58:00,mfh,24.26
2023-07-20T01:59:00,mfh,24.32
2023-07-20T02:00:00,mfh,25.06
2023-07-20T02:01:00,mfh,25.04
2023-07-20T02:02:00,mfh,25.07
2023-07-20T02:03:00,mfh,24.97
2023-07-20T02:04:00,mfh,24.51
2023-07-20T02:05:00,mfh,24.45
2023-07-20T02:06:00,mfh,24.40
2023-07-20T02:07:00,mfh,24.63
2023-07-20T02:08:00,mfh,24.80
2023-07-20T02:09:00,mfh,24.81
2023-07-20T02:10:00,mfh,24.80
2023-07-20T02:11:00,mfh,24.88
2023-07-20T02:12:00,mfh,24.91
2023-07-20T02:13:00,mfh,24.14
2023-07-20T02:14:00,mfh,24.08
2023-07-20T02:15:00,mfh,24.09
2023-07-20T02:16:00,mfh,24.07
2023-07-20T02:17:00,mfh,24.80
2023-07-20T02:18:00,mfh,24.81
2023-07-20T02:19:00,mfh,24.79
2023-07-20T02:20:00,mfh,24.63
2023-07-20T02:21:00,mfh,24.77
2023-07-20T02:22:00,mfh,24.13
2023-07-20T02:23:00,mfh,24.94
2023-07-20T02:24:00,mfh,24.04
2023-07-20T02:25:00,mfh,24.73
2023-07-20T02:26:00,mfh,24.73
2023-07-20T02:27:00,mfh,24.67
2023-07-20T02:28:00,mfh,24.72
2023-07-20T02:29:00,mfh,24.85
2023-07-20T02:30:00,mfh,24.03
2023-07-20T02:31:00,mfh,24.76
2023-07-20T02:32:00,mfh,24.54
2023-07-20T02:33:00,mfh,24.60
2023-07-20T02:34:00,mfh,25.27
2023-07-20T02:35:00,mfh,25.21
2023-07-20T02:36:00,mfh,25.23
2023-07-20T02:37:00,mfh,25.21
2023-07-20T02:38:00,mfh,24.63
2023-07-20T02:39:00,mfh,24.63
2023-07-20T02:40:00,mfh,24.58
2023-07-20T02:41:00,mfh,24.56
2023-07-20T02:42:00,mfh,26.15
2023-07-20T02:43:00,mfh,25.23
2023-07-20T02:44:00,mfh,24.53
2023-07-20T02:45:00,mfh,24.57
2023-07-20T02:46:00,mfh,25.23
2023-07-20T02:47:00,mfh,23.96
2023-07-20T02:48:00,mfh,24.72
2023-07-20T02:49:00,mfh,24.58
2023-07-20T02:50:00,mfh,25.13
2023-07-20T02:51:00,mfh,25.15
2023-07-20T02:52:00,mfh,25.06
2023-07-20T02:53:00,mfh,24.41
2023-07-20T02:54:00,mfh,24.65
2023-07-20T02:55:00,mfh,23.96
2023-07-20T02:56:00,mfh,24.07
2023-07-20T02:57:00,mfh,23.85
2023-07-20T02:58:00,mfh,24.43
2023-07-20T02:59:00,mfh,25.55
2023-07-20T03:00:00,mfh,25.69
2023-07-20T03:01:00,mfh,25.78
2023-07-20T03:02:00,mfh,25.08
2023-07-20T03:03:00,mfh,25.56
2023-07-20T03:04:00,mfh,25.46
2023-07-20T03:05:00,mfh,25.39
2023-07-20T03:06:00,mfh,25.54
2023-07-20T03:07:00,mfh,25.38
2023-07-20T03:08:00,mfh,25.48
2023-07-20T03:09:00,mfh,25.54
2023-07-20T03:10:00,mfh,24.80
2023-07-20T03:11:00,mfh,24.94
2023-07-20T03:12:00,mfh,25.02
2023-07-20T03:13:00,mfh,24.63
2023-07-20T03:14:00,mfh,25.07
2023-07-20T03:15:00,mfh,25.10
2023-07-20T03:16:00,mfh,25.67
2023-07-20T03:17:00,mfh,33.57
2023-07-20T03:18:00,mfh,34.30
2023-07-20T03:19:00,mfh,38.54
2023-07-20T03:20:00,mfh,38.76
2023-07-20T03:21:00,mfh,37.66
2023-07-20T03:22:00,mfh,37.76
2023-07-20T03:23:00,mfh,37.56
2023-07-20T03:24:00,mfh,39.03
2023-07-20T03:25:00,mfh,39.04
2023-07-20T03:26:00,mfh,38.72
2023-07-20T03:27:00,mfh,39.03
2023-07-20T03:28:00,mfh,39.01
2023-07-20T03:29:00,mfh,38.36
2023-07-20T03:30:00,mfh,38.28
2023-07-20T03:31:00,mfh,37.67
2023-07-20T03:32:00,mfh,37.73
2023-07-20T03:33:00,mfh,37.61
2023-07-20T03:34:00,mfh,39.88
2023-07-20T03:35:00,mfh,39.08
2023-07-20T03:36:00,mfh,38.90
2023-07-20T03:37:00,mfh,38.92
2023-07-20T03:38:00,mfh,38.82
2023-07-20T03:39:00,mfh,38.70
2023-07-20T03:40:00,mfh,38.84
2023-07-20T03:41:00,mfh,38.09
2023-07-20T03:42:00,mfh,38.08
2023-07-20T03:43:00,mfh,37.65
2023-07-20T03:44:00,mfh,38.43
2023-07-20T03:45:00,mfh,38.58
2023-07-20T03:46:00,mfh,38.64
2023-07-20T03:47:00,mfh,39.41
2023-07-20T03:48:00,mfh,39.45
2023-07-20T03:49:00,mfh,39.62
2023-07-20T03:50:00,mfh,40.15
2023-07-20T03:51:00,mfh,41.28
2023-07-20T03:52:00,mfh,40.39
2023-07-20T03:53:00,mfh,40.76
2023-07-20T03:54:00,mfh,38.90
2023-07-20T03:55:00,mfh,38.75
2023-07-20T03:56:00,mfh,39.00
2023-07-20T03:57:00,mfh,39.12
2023-07-20T03:58:00,mfh,37.91
2023-07-20T03:59:00,mfh,37.23
2023-07-20T04:00:00,mfh,37.23
2023-07-20T04:01:00,mfh,37.17
2023-07-20T04:02:00,mfh,37.23
2023-07-20T04:03:00,mfh,37.75
2023-07-20T04:04:00,mfh,37.80
2023-07-20T04:05:00,mfh,39.13
2023-07-20T04:06:00,mfh,39.01
2023-07-20T04:07:00,mfh,39.11
2023-07-20T04:08:00,mfh,38.57
2023-07-20T04:09:00,mfh,38.57
2023-07-20T04:10:00,mfh,38.77
2023-07-20T04:11:00,mfh,39.09
2023-07-20T04:12:00,mfh,39.74
2023-07-20T04:13:00,mfh,39.46
2023-07-20T04:14:00,mfh,39.59
2023-07-20T04:15:00,mfh,39.25
2023-07-20T04:16:00,mfh,39.05
2023-07-20T04:17:00,mfh,37.65
2023-07-20T04:18:00,mfh,37.24
2023-07-20T04:19:00,mfh,36.54
2023-07-20T04:20:00,mfh,36.21
2023-07-20T04:21:00,mfh,36.95
2023-07-20T04:22:00,mfh,36.88
2023-07-20T04:23:00,mfh,36.89
2023-07-20T04:24:00,mfh,36.72
2023-07-20T04:25:00,mfh,36.76
2023-07-20T04:26:00,mfh,36.41
2023-07-20T04:27:00,mfh,35.89
2023-07-20T04:28:00,mfh,37.91
2023-07-20T04:29:00,mfh,38.09
2023-07-20T04:30:00,mfh,38.65
2023-07-20T04:31:00,mfh,38.73
2023-07-20T04:32:00,mfh,38.35
2023-07-20T04:33:00,mfh,38.36
2023-07-20T04:34:00,mfh,36.76
2023-07-20T04:35:00,mfh,36.16
2023-07-20T04:36:00,mfh,36.37
2023-07-20T04:37:00,mfh,36.40
2023-07-20T04:38:00,mfh,36.94
2023-07-20T04:39:00,mfh,36.96
2023-07-20T04:40:00,mfh,36.14
2023-07-20T04:41:00,mfh,36.11
2023-07-20T04:42:00,mfh,36.09
2023-07-20T04:43:00,mfh,35.82
2023-07-20T04:44:00,mfh,36.19
2023-07-20T04:45:00,mfh,36.21
2023-07-20T04:46:00,mfh,36.12
2023-07-20T04:47:00,mfh,36.62
2023-07-20T04:48:00,mfh,36.67
2023-07-20T04:49:00,mfh,36.16
2023-07-20T04:50:00,mfh,36.06
2023-07-20T04:51:00,mfh,36.09
2023-07-20T04:52:00,mfh,35.57
2023-07-20T04:53:00,mfh,35.50
2023-07-20T04:54:00,mfh,36.29
2023-07-20T04:55:00,mfh,36.41
2023-07-20T04:56:00,mfh,37.33
2023-07-20T04:57:00,mfh,37.43
2023-07-20T04:58:00,mfh,37.40
2023-07-20T04:59:00,mfh,36.35
2023-07-20T05:00:00,mfh,36.79
2023-07-20T05:01:00,mfh,55.18
2023-07-20T05:02:00,mfh,57.40
2023-07-20T05:03:00,mfh,57.80
2023-07-20T05:04:00,mfh,58.33
2023-07-20T05:05:00,mfh,59.06
2023-07-20T05:06:00,mfh,60.50
2023-07-20T05:07:00,mfh,59.38
2023-07-20T05:08:00,mfh,59.40
2023-07-20T05:09:00,mfh,58.85
2023-07-20T05:10:00,mfh,58.76
2023-07-20T05:11:00,mfh,58.84
2023-07-20T05:12:00,mfh,58.06
2023-07-20T05:13:00,mfh,58.54
2023-07-20T05:14:00,mfh,59.08
2023-07-20T05:15:00,mfh,57.90
2023-07-20T05:16:00,mfh,57.87
2023-07-20T05:17:00,mfh,57.62
2023-07-20T05:18:00,mfh,58.35
2023-07-20T05:19:00,mfh,58.38
2023-07-20T05:20:00,mfh,57.68
2023-07-20T05:21:00,mfh,57.63
2023-07-20T05:22:00,mfh,57.41
2023-07-20T05:23:00,mfh,57.99
2023-07-20T05:24:00,mfh,58.01
2023-07-20T05:25:00,mfh,58.14
2023-07-20T05:26:00,mfh,57.31
2023-07-20T05:27:00,mfh,57.46
2023-07-20T05:28:00,mfh,56.74
2023-07-20T05:29:00,mfh,57.31
2023-07-20T05:30:00,mfh,57.36
2023-07-20T05:31:00,mfh,57.35
2023-07-20T05:32:00,mfh,57.90
2023-07-20T05:33:00,mfh,57.93
2023-07-20T05:34:00,mfh,56.84
2023-07-20T05:35:00,mfh,57.00
2023-07-20T05:36:00,mfh,55.73
2023-07-20T05:37:00,mfh,55.44
2023-07-20T05:38:00,mfh,55.58
2023-07-20T05:39:00,mfh,55.45
2023-07-20T05:40:00,mfh,55.62
2023-07-20T05:41:00,mfh,55.67
2023-07-20T05:42:00,mfh,55.90
2023-07-20T05:43:00,mfh,55.99
2023-07-20T05:44:00,mfh,56.05
2023-07-20T05:45:00,mfh,56.17
2023-07-20T05:46:00,mfh,56.82
2023-07-20T05:47:00,mfh,57.02
2023-07-20T05:48:00,mfh,57.77
2023-07-20T05:49:00,mfh,57.25
2023-07-20T05:50:00,mfh,55.25
2023-07-20T05:51:00,mfh,56.08
2023-07-20T05:52:00,mfh,55.72
2023-07-20T05:53:00,mfh,55.01
2023-07-20T05:54:00,mfh,55.71
2023-07-20T05:55:00,mfh,56.59
2023-07-20T05:56:00,mfh,56.45
2023-07-20T05:57:00,mfh,57.55
2023-07-20T05:58:00,mfh,56.54
2023-07-20T05:59:00,mfh,55.84
2023-07-20T06:00:00,mfh,55.22
2023-07-20T06:01:00,mfh,55.70
2023-07-20T06:02:00,mfh,56.72
2023-07-20T06:03:00,mfh,56.36
2023-07-20T06:04:00,mfh,56.46
2023-07-20T06:05:00,mfh,56.96
2023-07-20T06:06:00,mfh,57.28
2023-07-20T06:07:00,mfh,58.20
2023-07-20T06:08:00,mfh,56.71
2023-07-20T06:09:00,mfh,56.75
2023-07-20T06:10:00,mfh,55.84
2023-07-20T06:11:00,mfh,56.60
2023-07-20T06:12:00,mfh,56.51
2023-07-20T06:13:00,mfh,57.08
2023-07-20T06:14:00,mfh,56.50
2023-07-20T06:15:00,mfh,57.18
2023-07-20T06:16:00,mfh,56.59
2023-07-20T06:17:00,mfh,56.55
2023-07-20T06:18:00,mfh,56.72
2023-07-20T06:19:00,mfh,57.58
2023-07-20T06:20:00,mfh,56.99
2023-07-20T06:21:00,mfh,56.76
2023-07-20T06:22:00,mfh,56.56
2023-07-20T06:23:00,mfh,57.09
2023-07-20T06:24:00,mfh,57.17
2023-07-20T06:25:00,mfh,58.17
2023-07-20T06:26:00,mfh,65.92
2023-07-20T06:27:00,mfh,66.10
2023-07-20T06:28:00,mfh,71.34
2023-07-20T06:29:00,mfh,72.22
2023-07-20T06:30:00,mfh,76.19
2023-07-20T06:31:00,mfh,76.71
2023-07-20T06:32:00,mfh,76.74
2023-07-20T06:33:00,mfh,77.00
2023-07-20T06:34:00,mfh,76.69
2023-07-20T06:35:00,mfh,76.84
2023-07-20T06:36:00,mfh,77.01
2023-07-20T06:37:00,mfh,77.67
2023-07-20T06:38:00,mfh,77.36
2023-07-20T06:39:00,mfh,76.91
2023-07-20T06:40:00,mfh,71.72
2023-07-20T06:41:00,mfh,70.74
2023-07-20T06:42:00,mfh,64.49
2023-07-20T06:43:00,mfh,65.07
2023-07-20T06:44:00,mfh,66.47
2023-07-20T06:45:00,mfh,66.84
2023-07-20T06:46:00,mfh,60.16
2023-07-20T06:47:00,mfh,60.30
2023-07-20T06:48:00,mfh,60.34
2023-07-20T06:49:00,mfh,60.44
2023-07-20T06:50:00,mfh,59.05
2023-07-20T06:51:00,mfh,58.75
2023-07-20T06:52:00,mfh,58.05
2023-07-20T06:53:00,mfh,58.15
2023-07-20T06:54:00,mfh,58.93
2023-07-20T06:55:00,mfh,58.77
2023-07-20T06:56:00,mfh,58.83
2023-07-20T06:57:00,mfh,58.87
2023-07-20T06:58:00,mfh,58.99
2023-07-20T06:59:00,mfh,59.10
2023-07-20T07:00:00,mfh,58.22
2023-07-20T07:01:00,mfh,59.60
2023-07-20T07:02:00,mfh,58.76
2023-07-20T07:03:00,mfh,58.90
2023-07-20T07:04:00,mfh,59.66
2023-07-20T07:05:00,mfh,59.67
2023-07-20T07:06:00,mfh,59.72
2023-07-20T07:07:00,mfh,59.22
2023-07-20T07:08:00,mfh,59.38
2023-07-20T07:09:00,mfh,58.27
2023-07-20T07:10:00,mfh,58.45
2023-07-20T07:11:00,mfh,60.01
2023-07-20T07:12:00,mfh,60.57
2023-07-20T07:13:00,mfh,60.51
2023-07-20T07:14:00,mfh,60.54
2023-07-20T07:15:00,mfh,60.62
2023-07-20T07:16:00,mfh,60.04
2023-07-20T07:17:00,mfh,59.68
2023-07-20T07:18:00,mfh,59.32
2023-07-20T07:19:00,mfh,59.01
2023-07-20T07:20:00,mfh,59.97
2023-07-20T07:21:00,mfh,56.32
2023-07-20T07:22:00,mfh,55.33
2023-07-20T07:23:00,mfh,60.61
2023-07-20T07:24:00,mfh,60.04
2023-07-20T07:25:00,mfh,59.66
2023-07-20T07:26:00,mfh,59.24
2023-07-20T07:27:00,mfh,59.11
2023-07-20T07:28:00,mfh,59.79
2023-07-20T07:29:00,mfh,59.90
2023-07-20T07:30:00,mfh,59.43
2023-07-20T07:31:00,mfh,58.80
2023-07-20T07:32:00,mfh,59.11
2023-07-20T07:33:00,mfh,58.44
2023-07-20T07:34:00,mfh,57.88
2023-07-20T07:35:00,mfh,57.94
2023-07-20T07:36:00,mfh,58.41
2023-07-20T07:37:00,mfh,59.19
2023-07-20T07:38:00,mfh,59.49
2023-07-20T07:39:00,mfh,59.02
2023-07-20T07:40:00,mfh,58.97
2023-07-20T07:41:00,mfh,59.37
2023-07-20T07:42:00,mfh,58.00
2023-07-20T07:43:00,mfh,57.59
2023-07-20T07:44:00,mfh,57.96
2023-07-20T07:45:00,mfh,58.96
2023-07-20T07:46:00,mfh,58.97
2023-07-20T07:47:00,mfh,58.71
2023-07-20T07:48:00,mfh,58.82
2023-07-20T07:49:00,mfh,63.92
2023-07-20T07:50:00,mfh,62.98
2023-07-20T07:51:00,mfh,62.41
2023-07-20T07:52:00,mfh,69.10
2023-07-20T07:53:00,mfh,70.64
2023-07-20T07:54:00,mfh,71.40
2023-07-20T07:55:00,mfh,71.22
2023-07-20T07:56:00,mfh,71.17
2023-07-20T07:57:00,mfh,71.00
2023-07-20T07:58:00,mfh,69.63
2023-07-20T07:59:00,mfh,69.74
2023-07-20T08:00:00,mfh,68.77
2023-07-20T08:01:00,mfh,69.47
2023-07-20T08:02:00,mfh,69.29
2023-07-20T08:03:00,mfh,69.56
2023-07-20T08:04:00,mfh,69.81
2023-07-20T08:05:00,mfh,70.47
2023-07-20T08:06:00,mfh,70.68
2023-07-20T08:07:00,mfh,69.76
2023-07-20T08:08:00,mfh,63.76
2023-07-20T08:09:00,mfh,64.45
2023-07-20T08:10:00,mfh,64.87
2023-07-20T08:11:00,mfh,64.61
2023-07-20T08:12:00,mfh,58.33
2023-07-20T08:13:00,mfh,57.77
2023-07-20T08:14:00,mfh,57.63
2023-07-20T08:15:00,mfh,57.29
2023-07-20T08:16:00,mfh,57.50
2023-07-20T08:17:00,mfh,57.57
2023-07-20T08:18:00,mfh,57.58
2023-07-20T08:19:00,mfh,57.77
2023-07-20T08:20:00,mfh,58.55
2023-07-20T08:21:00,mfh,58.46
2023-07-20T08:22:00,mfh,58.12
2023-07-20T08:23:00,mfh,59.32
2023-07-20T08:24:00,mfh,59.39
2023-07-20T08:25:00,mfh,60.37
2023-07-20T08:26:00,mfh,59.91
2023-07-20T08:27:00,mfh,57.91
2023-07-20T08:28:00,mfh,57.81
2023-07-20T08:29:00,mfh,58.40
2023-07-20T08:30:00,mfh,57.65
2023-07-20T08:31:00,mfh,57.70
2023-07-20T08:32:00,mfh,57.86
2023-07-20T08:33:00,mfh,58.59
2023-07-20T08:34:00,mfh,57.97
2023-07-20T08:35:00,mfh,57.09
2023-07-20T08:36:00,mfh,57.17
2023-07-20T08:37:00,mfh,56.27
2023-07-20T08:38:00,mfh,57.89
2023-07-20T08:39:00,mfh,57.25
2023-07-20T08:40:00,mfh,57.30
2023-07-20T08:41:00,mfh,57.51
2023-07-20T08:42:00,mfh,57.89
2023-07-20T08:43:00,mfh,56.88
2023-07-20T08:44:00,mfh,56.95
2023-07-20T08:45:00,mfh,56.88
2023-07-20T08:46:00,mfh,56.68
2023-07-20T08:47:00,mfh,56.65
2023-07-20T08:48:00,mfh,56.97
2023-07-20T08:49:00,mfh,57.06
2023-07-20T08:50:00,mfh,57.95
2023-07-20T08:51:00,mfh,57.66
2023-07-20T08:52:00,mfh,56.93
2023-07-20T08:53:00,mfh,57.51
2023-07-20T08:54:00,mfh,56.81
2023-07-20T08:55:00,mfh,57.26
2023-07-20T08:56:00,mfh,57.26
2023-07-20T08:57:00,mfh,56.53
2023-07-20T08:58:00,mfh,56.63
2023-07-20T08:59:00,mfh,57.37
2023-07-20T09:00:00,mfh,56.70
2023-07-20T09:01:00,mfh,56.80
2023-07-20T09:02:00,mfh,56.94
2023-07-20T09:03:00,mfh,57.32
2023-07-20T09:04:00,mfh,57.54
2023-07-20T09:05:00,mfh,56.65
2023-07-20T09:06:00,mfh,56.94
2023-07-20T09:07:00,mfh,56.91
2023-07-20T09:08:00,mfh,57.02
2023-07-20T09:09:00,mfh,56.89
2023-07-20T09:10:00,mfh,56.85
2023-07-20T09:11:00,mfh,56.77
2023-07-20T09:12:00,mfh,57.36
2023-07-20T09:13:00,mfh,57.75
2023-07-20T09:14:00,mfh,57.39
2023-07-20T09:15:00,mfh,57.22
2023-07-20T09:16:00,mfh,57.24
2023-07-20T09:17:00,mfh,57.17
2023-07-20T09:18:00,mfh,57.31
2023-07-20T09:19:00,mfh,57.42
2023-07-20T09:20:00,mfh,57.41
2023-07-20T09:21:00,mfh,57.99
2023-07-20T09:22:00,mfh,58.61
2023-07-20T09:23:00,mfh,69.32
2023-07-20T09:24:00,mfh,70.88
2023-07-20T09:25:00,mfh,71.94
2023-07-20T09:26:00,mfh,71.69
2023-07-20T09:27:00,mfh,71.52
2023-07-20T09:28:00,mfh,71.22
2023-07-20T09:29:00,mfh,72.82
2023-07-20T09:30:00,mfh,71.75
2023-07-20T09:31:00,mfh,71.85
2023-07-20T09:32:00,mfh,71.04
2023-07-20T09:33:00,mfh,71.10
2023-07-20T09:34:00,mfh,71.75
2023-07-20T09:35:00,mfh,70.56
2023-07-20T09:36:00,mfh,70.34
2023-07-20T09:37:00,mfh,70.08
2023-07-20T09:38:00,mfh,70.76
2023-07-20T09:39:00,mfh,71.05
2023-07-20T09:40:00,mfh,70.70
2023-07-20T09:41:00,mfh,70.18
2023-07-20T09:42:00,mfh,70.10
2023-07-20T09:43:00,mfh,64.40
2023-07-20T09:44:00,mfh,64.11
2023-07-20T09:45:00,mfh,64.86
2023-07-20T09:46:00,mfh,65.63
2023-07-20T09:47:00,mfh,65.39
2023-07-20T09:48:00,mfh,58.40
2023-07-20T09:49:00,mfh,58.50
2023-07-20T09:50:00,mfh,58.43
2023-07-20T09:51:00,mfh,58.60
2023-07-20T09:52:00,mfh,57.09
2023-07-20T09:53:00,mfh,56.96
2023-07-20T09:54:00,mfh,57.74
2023-07-20T09:55:00,mfh,58.90
2023-07-20T09:56:00,mfh,58.31
2023-07-20T09:57:00,mfh,58.76
2023-07-20T09:58:00,mfh,58.75
2023-07-20T09:59:00,mfh,58.74
2023-07-20T10:00:00,mfh,58.12
2023-07-20T10:01:00,mfh,65.39
2023-07-20T10:02:00,mfh,66.11
2023-07-20T10:03:00,mfh,66.04
2023-07-20T10:04:00,mfh,66.18
2023-07-20T10:05:00,mfh,66.53
2023-07-20T10:06:00,mfh,66.65
2023-07-20T10:07:00,mfh,67.31
2023-07-20T10:08:00,mfh,66.05
2023-07-20T10:09:00,mfh,65.76
2023-07-20T10:10:00,mfh,65.96
2023-07-20T10:11:00,mfh,65.62
2023-07-20T10:12:00,mfh,66.27
2023-07-20T10:13:00,mfh,66.09
2023-07-20T10:14:00,mfh,66.26
2023-07-20T10:15:00,mfh,65.17
2023-07-20T10:16:00,mfh,65.24
2023-07-20T10:17:00,mfh,64.58
2023-07-20T10:18:00,mfh,65.10
2023-07-20T10:19:00,mfh,58.38
2023-07-20T10:20:00,mfh,58.48
2023-07-20T10:21:00,mfh,58.97
2023-07-20T10:22:00,mfh,59.12
2023-07-20T10:23:00,mfh,59.11
2023-07-20T10:24:00,mfh,58.98
2023-07-20T10:25:00,mfh,59.03
2023-07-20T10:26:00,mfh,58.14
2023-07-20T10:27:00,mfh,58.14
2023-07-20T10:28:00,mfh,59.02
2023-07-20T10:29:00,mfh,58.39
2023-07-20T10:30:00,mfh,58.20
2023-07-20T10:31:00,mfh,58.19
2023-07-20T10:32:00,mfh,59.09
2023-07-20T10:33:00,mfh,59.18
2023-07-20T10:34:00,mfh,58.46
2023-07-20T10:35:00,mfh,58.74
2023-07-20T10:36:00,mfh,58.97
2023-07-20T10:37:00,mfh,58.49
2023-07-20T10:38:00,mfh,59.11
2023-07-20T10:39:00,mfh,58.96
2023-07-20T10:40:00,mfh,58.12
2023-07-20T10:41:00,mfh,58.32
2023-07-20T10:42:00,mfh,58.36
2023-07-20T10:43:00,mfh,58.48
2023-07-20T10:44:00,mfh,58.84
2023-07-20T10:45:00,mfh,59.40
2023-07-20T10:46:00,mfh,58.39
2023-07-20T10:47:00,mfh,60.15
2023-07-20T10:48:00,mfh,59.18
2023-07-20T10:49:00,mfh,59.73
2023-07-20T10:50:00,mfh,59.12
2023-07-20T10:51:00,mfh,58.77
2023-07-20T10:52:00,mfh,58.59
2023-07-20T10:53:00,mfh,57.75
2023-07-20T10:54:00,mfh,59.48
2023-07-20T10:55:00,mfh,58.37
2023-07-20T10:56:00,mfh,59.01
2023-07-20T10:57:00,mfh,59.16
2023-07-20T10:58:00,mfh,59.41
2023-07-20T10:59:00,mfh,59.16
2023-07-20T11:00:00,mfh,58.42
2023-07-20T11:01:00,mfh,57.98
2023-07-20T11:02:00,mfh,58.24
2023-07-20T11:03:00,mfh,59.33
2023-07-20T11:04:00,mfh,58.71
2023-07-20T11:05:00,mfh,58.85
2023-07-20T11:06:00,mfh,58.01
2023-07-20T11:07:00,mfh,58.16
2023-07-20T11:08:00,mfh,58.19
2023-07-20T11:09:00,mfh,58.36
2023-07-20T11:10:00,mfh,57.73
2023-07-20T11:11:00,mfh,58.03
2023-07-20T11:12:00,mfh,58.65
2023-07-20T11:13:00,mfh,58.44
2023-07-20T11:14:00,mfh,58.64
2023-07-20T11:15:00,mfh,58.56
2023-07-20T11:16:00,mfh,59.32
2023-07-20T11:17:00,mfh,57.84
2023-07-20T11:18:00,mfh,57.85
2023-07-20T11:19:00,mfh,57.86
2023-07-20T11:20:00,mfh,57.87
2023-07-20T11:21:00,mfh,58.75
2023-07-20T11:22:00,mfh,57.78
2023-07-20T11:23:00,mfh,58.42
2023-07-20T11:24:00,mfh,58.77
2023-07-20T11:25:00,mfh,60.02
2023-07-20T11:26:00,mfh,59.12
2023-07-20T11:27:00,mfh,59.83
2023-07-20T11:28:00,mfh,59.77
2023-07-20T11:29:00,mfh,60.26
2023-07-20T11:30:00,mfh,60.22
2023-07-20T11:31:00,mfh,60.34
2023-07-20T11:32:00,mfh,60.31
2023-07-20T11:33:00,mfh,60.50
2023-07-20T11:34:00,mfh,59.66
2023-07-20T11:35:00,mfh,59.59
2023-07-20T11:36:00,mfh,59.92
2023-07-20T11:37:00,mfh,60.02
2023-07-20T11:38:00,mfh,60.24
2023-07-20T11:39:00,mfh,60.20
2023-07-20T11:40:00,mfh,60.33
2023-07-20T11:41:00,mfh,61.85
2023-07-20T11:42:00,mfh,61.21
2023-07-20T11:43:00,mfh,60.66
2023-07-20T11:44:00,mfh,60.48
2023-07-20T11:45:00,mfh,61.09
2023-07-20T11:46:00,mfh,60.44
2023-07-20T11:47:00,mfh,60.93
2023-07-20T11:48:00,mfh,60.71
2023-07-20T11:49:00,mfh,62.28
2023-07-20T11:50:00,mfh,62.39
2023-07-20T11:51:00,mfh,59.54
2023-07-20T11:52:00,mfh,59.51
2023-07-20T11:53:00,mfh,59.38
2023-07-20T11:54:00,mfh,58.63
2023-07-20T11:55:00,mfh,59.52
2023-07-20T11:56:00,mfh,59.38
2023-07-20T11:57:00,mfh,60.20
2023-07-20T11:58:00,mfh,60.26
2023-07-20T11:59:00,mfh,60.14
2023-07-20T12:00:00,mfh,59.53
2023-07-20T12:01:00,mfh,59.24
2023-07-20T12:02:00,mfh,59.23
2023-07-20T12:03:00,mfh,59.39
2023-07-20T12:04:00,mfh,59.96
2023-07-20T12:05:00,mfh,59.65
2023-07-20T12:06:00,mfh,60.09
2023-07-20T12:07:00,mfh,59.66
2023-07-20T12:08:00,mfh,59.86
2023-07-20T12:09:00,mfh,59.18
2023-07-20T12:10:00,mfh,59.16
2023-07-20T12:11:00,mfh,58.13
2023-07-20T12:12:00,mfh,59.05
2023-07-20T12:13:00,mfh,59.09
2023-07-20T12:14:00,mfh,60.25
2023-07-20T12:15:00,mfh,60.14
2023-07-20T12:16:00,mfh,59.97
2023-07-20T12:17:00,mfh,60.35
2023-07-20T12:18:00,mfh,60.44
2023-07-20T12:19:00,mfh,60.51
2023-07-20T12:20:00,mfh,60.71
2023-07-20T12:21:00,mfh,61.21
2023-07-20T12:22:00,mfh,61.33
2023-07-20T12:23:00,mfh,61.27
2023-07-20T12:24:00,mfh,61.54
2023-07-20T12:25:00,mfh,61.52
2023-07-20T12:26:00,mfh,60.85
2023-07-20T12:27:00,mfh,60.84
2023-07-20T12:28:00,mfh,71.72
2023-07-20T12:29:00,mfh,79.84
2023-07-20T12:30:00,mfh,81.17
2023-07-20T12:31:00,mfh,81.48
2023-07-20T12:32:00,mfh,81.09
2023-07-20T12:33:00,mfh,80.79
2023-07-20T12:34:00,mfh,80.60
2023-07-20T12:35:00,mfh,80.00
2023-07-20T12:36:00,mfh,79.93
2023-07-20T12:37:00,mfh,80.01
2023-07-20T12:38:00,mfh,80.32
2023-07-20T12:39:00,mfh,80.11
2023-07-20T12:40:00,mfh,80.26
2023-07-20T12:41:00,mfh,80.21
2023-07-20T12:42:00,mfh,80.06
2023-07-20T12:43:00,mfh,79.56
2023-07-20T12:44:00,mfh,79.49
2023-07-20T12:45:00,mfh,79.30
2023-07-20T12:46:00,mfh,79.53
2023-07-20T12:47:00,mfh,82.85
2023-07-20T12:48:00,mfh,82.66
2023-07-20T12:49:00,mfh,82.71
2023-07-20T12:50:00,mfh,82.59
2023-07-20T12:51:00,mfh,83.02
2023-07-20T12:52:00,mfh,77.61
2023-07-20T12:53:00,mfh,77.82
2023-07-20T12:54:00,mfh,77.68
2023-07-20T12:55:00,mfh,78.31
2023-07-20T12:56:00,mfh,78.09
2023-07-20T12:57:00,mfh,78.22
2023-07-20T12:58:00,mfh,77.89
2023-07-20T12:59:00,mfh,78.01
2023-07-20T13:00:00,mfh,77.30
2023-07-20T13:01:00,mfh,74.02
2023-07-20T13:02:00,mfh,74.15
2023-07-20T13:03:00,mfh,74.18
2023-07-20T13:04:00,mfh,69.89
2023-07-20T13:05:00,mfh,68.11
2023-07-20T13:06:00,mfh,67.61
2023-07-20T13:07:00,mfh,67.50
2023-07-20T13:08:00,mfh,68.00
2023-07-20T13:09:00,mfh,67.43
2023-07-20T13:10:00,mfh,65.05
2023-07-20T13:11:00,mfh,61.13
2023-07-20T13:12:00,mfh,61.82
2023-07-20T13:13:00,mfh,61.87
2023-07-20T13:14:00,mfh,61.60
2023-07-20T13:15:00,mfh,61.99
2023-07-20T13:16:00,mfh,62.18
2023-07-20T13:17:00,mfh,62.13
2023-07-20T13:18:00,mfh,62.11